User: anonymous   Login
Location: Unspecified
(0.0000°N, 0.0000°E)
Time: 10:33:47
(UTC+02:00)
Language:

Cosmos 1733 Rocket - Orbit

View from above orbital plane
View from above orbital plane
View from above satellite
View from above satellite

Ground track
Ground track

The orbit data is extracted from the following two-line orbital elements,

1 16612U 86018B   15244.88422208  .00000192  00000-0  20109-4 0  9997
2 16612  82.5183 190.2395 0018543 148.0292 264.7530 14.83966249494412
Epoch (UTC): 01 September 2015 21:13:16
Eccentricity: 0.0018543
inclination: 82.5183°
perigee height: 604 km
apogee height: 630 km
right ascension of ascending node: 190.2395°
argument of perigee: 148.0292°
revolutions per day: 14.83966249
mean anomaly at epoch: 264.7530°
orbit number at epoch: 49441

The dashed part of the orbit path shows where the satellite is in the earth's shadow,  

DLR